FW2408 Weather Reports


Display with metric or nautical units.
time (UTC)temp
F
wind
direction
speed
MPH
gust
MPH
rain 1hr
in
rain 24hr
in
rain mn
in
humidity
%
barometer
mb
20200330014004 45 36 0.0 3.0 0.00 0.06 0.06 96 1011.3
20200330013540 45 355 0.0 2.0 0.00 0.06 0.06 96 1011.4
20200330013041 45 355 0.0 3.0 0.00 0.06 0.06 96 1011.4
20200330012616 45 355 0.0 3.0 0.00 0.06 0.06 96 1011.4
20200330012037 44 24 0.0 3.0 0.00 0.06 0.06 96 1011.2
20200330011512 44 24 0.0 4.0 0.00 0.06 0.06 96 1011.2
20200330011050 44 5 1.0 4.0 0.00 0.06 0.06 96 1011.2
20200330010530 44 350 0.0 4.0 0.00 0.06 0.06 96 1011.4
20200330005530 44 351 0.0 5.0 0.00 0.06 0.06 96 1011.4
20200330005008 44 314 0.0 2.0 0.00 0.06 0.06 96 1011.3
20200330004607 44 314 0.0 3.0 0.00 0.06 0.06 96 1011.4
20200330004027 44 314 1.0 3.0 0.00 0.06 0.06 96 1011.4
20200330003504 44 337 0.0 2.0 0.00 0.06 0.06 96 1011.5
20200330003108 44 337 0.0 2.0 0.00 0.06 0.06 96 1011.3
20200330002524 44 337 0.0 2.0 0.00 0.06 0.06 96 1011.4
20200330001651 44 337 1.0 4.0 0.00 0.08 0.06 96 1011.3
20200330001021 44 360 0.0 3.0 0.00 0.08 0.06 96 1011.1
20200330000600 44 60 2.0 5.0 0.00 0.08 0.06 96 1010.9
20200330000057 44 340 1.0 6.0 0.00 0.08 0.06 96 1010.8
20200329235556 44 330 2.0 6.0 0.00 0.08 0.06 96 1010.7
20200329235032 44 318 0.0 4.0 0.00 0.08 0.06 96 1010.8
20200329234526 44 317 0.0 4.0 0.00 0.08 0.06 96 1010.7
20200329234049 44 360 1.0 4.0 0.00 0.08 0.06 96 1010.5
20200329233534 44 336 0.0 3.0 0.00 0.08 0.06 96 1010.7
20200329233001 44 311 1.0 6.0 0.00 0.08 0.06 96 1010.7
20200329232544 44 38 0.0 6.0 0.00 0.08 0.06 96 1010.7
20200329232018 44 44 0.0 5.0 0.00 0.08 0.06 96 1010.7
20200329231655 44 47 1.0 5.0 0.00 0.18 0.06 96 1010.6
20200329231033 45 350 2.0 8.0 0.00 0.18 0.06 96 1010.7
20200329230509 45 327 2.0 6.0 0.00 0.18 0.06 96 1010.6
20200329230111 45 360 2.0 5.0 0.00 0.18 0.06 96 1010.4
20200329225511 45 113 0.0 3.0 0.00 0.18 0.06 96 1010.6
20200329225046 45 46 0.0 4.0 0.00 0.18 0.06 96 1010.4
20200329224613 45 46 0.0 8.0 0.00 0.18 0.06 96 1010.6
20200329223544 45 355 3.0 5.0 0.00 0.18 0.06 96 1010.7
20200329223028 45 314 1.0 5.0 0.00 0.18 0.06 96 1010.5
20200329222047 45 322 2.0 4.0 0.00 0.18 0.06 96 1010.5
20200329221520 45 344 0.0 5.0 0.00 0.19 0.06 96 1010.6
20200329221104 45 344 3.0 5.0 0.00 0.19 0.06 96 1010.7
20200329220536 45 349 1.0 4.0 0.00 0.19 0.06 96 1010.8
20200329215543 45 342 0.0 4.0 0.00 0.19 0.06 96 1011.2
20200329215015 45 338 0.0 4.0 0.00 0.19 0.06 96 1011.2
20200329214700 45 101 0.0 2.0 0.00 0.19 0.06 96 1011.1
20200329214045 45 101 0.0 1.0 0.00 0.19 0.06 96 1011.0
20200329213512 45 101 0.0 4.0 0.00 0.19 0.06 96 1011.1
20200329213202 45 101 1.0 4.0 0.00 0.19 0.06 96 1011.2
20200329212540 45 157 0.0 5.0 0.00 0.19 0.06 96 1011.3
20200329212010 45 350 0.0 4.0 0.00 0.19 0.06 96 1011.1
20200329211621 45 349 1.0 6.0 0.00 0.19 0.06 96 1010.8
20200329211028 45 46 1.0 6.0 0.00 0.19 0.06 96 1010.6
20200329210509 45 46 1.0 4.0 0.00 0.19 0.06 96 1010.7
20200329210155 45 5 0.0 6.0 0.00 0.19 0.06 96 1010.9
20200329205504 45 15 0.0 0.0 0.00 0.19 0.06 96 1011.0
20200329205056 45 15 0.0 3.0 0.00 0.19 0.06 96 1010.9
20200329204539 45 15 1.0 4.0 0.00 0.19 0.06 96 1010.7
20200329204002 45 15 1.0 4.0 0.00 0.19 0.06 96 1010.5
20200329203553 46 44 1.0 4.0 0.00 0.19 0.06 96 1010.2
20200329203026 46 142 0.0 4.0 0.00 0.19 0.06 96 1010.0
20200329202605 46 5 0.0 3.0 0.00 0.19 0.06 96 1009.6
20200329202037 46 360 0.0 5.0 0.00 0.19 0.06 96 1009.9
20200329201552 46 9 1.0 5.0 0.00 0.19 0.06 96 1009.7
20200329201059 46 318 0.0 3.0 0.00 0.19 0.06 96 1009.6
20200329200530 46 76 1.0 13.0 0.00 0.19 0.06 96 1009.4
20200329195538 46 339 4.0 8.0 0.00 0.19 0.06 96 1009.4
20200329195008 46 23 2.0 10.0 0.00 0.19 0.06 96 1009.4
20200329194621 46 5 2.0 10.0 0.00 0.19 0.06 96 1009.4
20200329194025 46 349 2.0 6.0 0.00 0.19 0.06 96 1009.7
20200329193502 45 355 1.0 10.0 0.00 0.19 0.06 96 1009.8
20200329193132 45 61 3.0 10.0 0.00 0.19 0.06 96 1010.0
20200329192520 45 19 2.0 5.0 0.00 0.19 0.06 96 1010.2
20200329192100 45 260 1.0 8.0 0.00 0.19 0.06 96 1010.4
20200329191612 45 5 2.0 9.0 0.00 0.24 0.06 96 1010.5
20200329191015 45 360 2.0 10.0 0.00 0.24 0.06 96 1010.4
20200329190557 45 20 2.0 10.0 0.00 0.24 0.06 96 1010.4
20200329190054 45 29 3.0 10.0 0.00 0.24 0.06 96 1010.2
20200329185611 45 303 0.0 10.0 0.00 0.24 0.06 96 1010.7
20200329185037 45 28 2.0 8.0 0.00 0.24 0.06 96 1010.8
20200329184545 46 350 3.0 8.0 0.00 0.24 0.06 96 1011.5
20200329184119 46 5 3.0 6.0 0.00 0.24 0.06 96 1011.5
20200329183533 45 315 2.0 5.0 0.00 0.24 0.06 96 1011.5
20200329183023 45 41 0.0 5.0 0.00 0.24 0.06 96 1011.7
20200329182549 45 5 2.0 6.0 0.00 0.24 0.06 96 1012.0
20200329182028 45 360 2.0 6.0 0.00 0.24 0.06 96 1012.5
20200329181509 45 185 2.0 8.0 0.00 0.38 0.06 96 1011.8
20200329181041 45 63 2.0 6.0 0.00 0.38 0.06 96 1011.7
20200329180534 45 285 0.0 6.0 0.00 0.38 0.06 96 1011.9
20200329180329 45 360 3.0 5.0 0.00 0.38 0.06 96 1012.4
20200329175519 45 74 0.0 5.0 0.00 0.38 0.06 96 1012.7
20200329174602 45 39 2.0 5.0 0.00 0.38 0.06 96 1012.8
20200329174014 46 5 2.0 8.0 0.00 0.38 0.06 96 1013.0
20200329173554 46 355 2.0 5.0 0.00 0.38 0.06 96 1013.2
20200329173053 46 15 1.0 8.0 0.00 0.38 0.06 96 1013.4
20200329172509 46 9 2.0 8.0 0.00 0.38 0.06 96 1013.7
20200329172052 45 340 0.0 4.0 0.00 0.38 0.06 96 1013.9
20200329171610 45 16 1.0 8.0 0.00 0.41 0.06 96 1013.9
20200329171010 45 27 2.0 8.0 0.00 0.41 0.06 96 1014.4
20200329170559 45 355 2.0 5.0 0.00 0.41 0.06 96 1014.5
20200329170020 45 46 0.0 5.0 0.00 0.41 0.06 96 1014.6
20200329165553 45 5 3.0 7.0 0.00 0.41 0.06 96 1014.5
20200329165031 45 326 2.0 7.0 0.00 0.41 0.06 96 1014.7
20200329164511 45 177 2.0 6.0 0.00 0.41 0.06 96 1014.4
20200329164053 46 25 0.0 11.0 0.00 0.41 0.06 96 1014.0
20200329163526 45 146 4.0 11.0 0.00 0.41 0.06 96 1013.9
20200329163004 45 5 2.0 11.0 0.00 0.41 0.06 96 1013.9
20200329162544 45 19 3.0 11.0 0.00 0.41 0.06 96 1014.1
20200329162017 45 251 3.0 10.0 0.00 0.41 0.06 96 1014.4
20200329161704 45 40 2.0 10.0 0.00 0.44 0.06 96 1014.0
20200329161036 45 317 2.0 9.0 0.00 0.44 0.06 96 1013.9
20200329160514 45 36 5.0 9.0 0.00 0.44 0.06 96 1014.0
20200329160125 45 23 3.0 8.0 0.00 0.44 0.06 96 1014.5
20200329155518 45 28 1.0 9.0 0.00 0.44 0.06 96 1014.7
20200329155054 45 39 2.0 10.0 0.00 0.44 0.06 96 1014.8
20200329154637 45 22 3.0 11.0 0.00 0.44 0.06 96 1014.6
20200329154014 45 38 4.0 11.0 0.00 0.44 0.06 96 1014.3
20200329153551 45 348 3.0 10.0 0.02 0.44 0.06 96 1014.6
20200329153126 45 355 1.0 5.0 0.02 0.44 0.06 96 1015.0
20200329152506 45 77 1.0 8.0 0.02 0.44 0.06 96 1015.0
20200329152055 45 300 3.0 8.0 0.02 0.44 0.06 96 1014.8
20200329151620 45 11 1.0 10.0 0.04 0.46 0.06 97 1014.6
20200329151007 45 59 3.0 10.0 0.04 0.46 0.06 97 1014.9
20200329150555 45 36 2.0 11.0 0.04 0.46 0.06 96 1015.3
20200329150010 45 30 4.0 11.0 0.04 0.46 0.06 96 1015.3
20200329145543 45 344 1.0 6.0 0.04 0.46 0.06 96 1015.4
20200329145045 45 360 3.0 6.0 0.04 0.46 0.06 96 1015.6
20200329144055 45 360 1.0 8.0 0.04 0.46 0.06 96 1015.7
20200329143518 45 12 2.0 4.0 0.02 0.44 0.04 96 1015.5
20200329142539 45 17 0.0 6.0 0.03 0.44 0.04 96 1016.0
20200329142018 45 46 2.0 9.0 0.03 0.44 0.04 96 1015.4
20200329141639 45 269 6.0 9.0 0.01 0.43 0.02 96 1017.2
20200329141033 45 292 1.0 6.0 0.01 0.43 0.02 96 1015.7
20200329140515 45 329 1.0 6.0 0.01 0.43 0.02 96 1015.8
20200329140121 45 355 3.0 5.0 0.01 0.43 0.02 96 1015.9
20200329135517 45 5 3.0 6.0 0.01 0.43 0.02 96 1016.2
20200329135059 45 17 2.0 8.0 0.01 0.43 0.02 96 1015.9
20200329134550 45 5 2.0 9.0 0.01 0.43 0.02 96 1016.1
20200329134013 45 360 5.0 9.0 0.01 0.43 0.02 96 1016.8
20200329133556 45 315 2.0 10.0 0.01 0.43 0.02 96 1017.5
20200329133050 45 232 5.0 13.0 0.00 0.42 0.01 96 1018.5
20200329132045 44 35 2.0 6.0 0.00 0.42 0.01 96 1016.2
20200329131527 44 355 2.0 5.0 0.00 0.42 0.01 96 1016.0
20200329130534 44 355 1.0 8.0 0.00 0.42 0.01 96 1015.9
20200329125536 44 342 1.0 8.0 0.00 0.42 0.01 96 1015.7
20200329125019 44 360 1.0 9.0 0.00 0.42 0.01 96 1015.8
20200329124723 44 25 4.0 9.0 0.00 0.42 0.01 97 1015.8
20200329124025 44 264 2.0 5.0 0.00 0.42 0.01 96 1016.3
20200329123503 44 304 2.0 6.0 0.00 0.42 0.01 96 1016.4
20200329123159 44 33 1.0 6.0 0.00 0.42 0.01 96 1016.4
20200329122523 44 5 1.0 6.0 0.00 0.42 0.01 96 1016.2
20200329122004 44 335 3.0 6.0 0.00 0.42 0.01 96 1016.0
20200329121549 44 334 2.0 6.0 0.00 0.42 0.01 96 1016.1
20200329121024 44 24 1.0 8.0 0.00 0.42 0.01 96 1016.0
20200329120559 44 360 3.0 8.0 0.00 0.42 0.01 96 1015.8
20200329120021 44 16 1.0 8.0 0.00 0.42 0.01 96 1015.6
20200329115600 44 25 3.0 8.0 0.00 0.42 0.01 96 1015.4
20200329115039 44 355 3.0 6.0 0.00 0.42 0.01 96 1015.8
20200329114545 43 21 2.0 6.0 0.00 0.42 0.01 96 1015.9
20200329114059 43 347 1.0 9.0 0.00 0.42 0.01 96 1016.0
20200329113552 43 285 2.0 3.0 0.00 0.42 0.01 96 1015.8
20200329113039 43 15 0.0 5.0 0.00 0.42 0.01 96 1015.8
20200329112557 43 56 2.0 8.0 0.00 0.42 0.01 96 1015.6
20200329112045 43 16 2.0 8.0 0.00 0.42 0.01 96 1015.8
20200329111538 43 336 2.0 6.0 0.00 0.42 0.01 96 1016.1
20200329111055 43 5 3.0 6.0 0.00 0.42 0.01 96 1016.1
20200329110532 43 348 0.0 3.0 0.00 0.42 0.01 96 1015.6
20200329105541 43 336 3.0 10.0 0.00 0.42 0.01 96 1015.3
20200329105034 43 16 2.0 10.0 0.00 0.42 0.01 96 1015.0
20200329104643 43 14 3.0 10.0 0.00 0.42 0.01 96 1014.6
20200329104102 43 360 3.0 11.0 0.00 0.42 0.01 96 1014.9
20200329103520 43 54 3.0 11.0 0.00 0.42 0.01 96 1015.2
20200329103217 43 11 1.0 6.0 0.00 0.42 0.01 96 1015.5
20200329102528 43 17 2.0 8.0 0.00 0.42 0.01 96 1015.2
20200329102005 43 342 1.0 8.0 0.00 0.42 0.01 96 1014.9
20200329101605 43 22 1.0 5.0 0.00 0.42 0.01 96 1014.9
20200329101031 43 340 1.0 8.0 0.00 0.42 0.01 96 1015.1
20200329100505 43 333 2.0 8.0 0.00 0.42 0.01 96 1015.1
20200329100123 43 355 1.0 6.0 0.00 0.42 0.01 96 1015.0
20200329095516 43 355 3.0 9.0 0.00 0.42 0.01 96 1014.7
20200329095108 43 342 2.0 5.0 0.00 0.42 0.01 96 1014.9
20200329094536 43 11 1.0 6.0 0.00 0.42 0.01 96 1014.9
20200329093553 43 323 1.0 6.0 0.00 0.42 0.01 96 1015.2
20200329093050 43 11 2.0 6.0 0.00 0.42 0.01 96 1015.4
20200329092040 43 5 0.0 4.0 0.00 0.42 0.01 96 1015.1
20200329091057 43 24 2.0 10.0 0.00 0.42 0.01 96 1015.2
20200329090552 43 16 5.0 10.0 0.00 0.42 0.01 96 1015.2
20200329085600 43 5 1.0 8.0 0.00 0.42 0.01 96 1015.0
20200329085019 43 42 3.0 8.0 0.00 0.42 0.01 96 1014.8
20200329084105 43 12 2.0 5.0 0.00 0.42 0.01 96 1015.0
20200329083516 43 5 1.0 9.0 0.00 0.42 0.01 96 1015.0
20200329083115 43 339 2.0 9.0 0.00 0.42 0.01 96 1015.0
20200329082533 43 31 3.0 9.0 0.00 0.42 0.01 96 1015.2
20200329082005 43 5 2.0 6.0 0.00 0.42 0.01 96 1015.4
20200329081648 43 300 2.0 6.0 0.00 0.42 0.01 96 1015.5
20200329081025 43 39 2.0 6.0 0.01 0.42 0.01 96 1015.4
20200329080506 43 355 1.0 10.0 0.01 0.42 0.01 96 1015.6
20200329075502 43 33 2.0 8.0 0.01 0.42 0.01 96 1015.7
20200329075042 43 275 2.0 6.0 0.01 0.42 0.01 96 1015.8
20200329074539 43 30 2.0 6.0 0.01 0.42 0.01 96 1015.6
20200329074100 43 360 2.0 6.0 0.01 0.42 0.01 96 1015.6
20200329073536 43 348 1.0 6.0 0.01 0.42 0.01 96 1015.9
20200329073022 43 327 1.0 9.0 0.01 0.42 0.01 96 1015.7
20200329072556 43 42 3.0 9.0 0.01 0.42 0.01 96 1015.7
20200329072033 43 335 0.0 5.0 0.01 0.42 0.01 96 1015.7
20200329071618 43 321 2.0 9.0 0.01 0.42 0.01 96 1015.8
20200329071039 43 360 2.0 9.0 0.00 0.41 0.00 96 1015.9
20200329070513 43 5 0.0 5.0 0.00 0.41 0.00 96 1016.1
20200329070209 43 26 2.0 5.0 0.00 0.41 0.00 96 1016.1
20200329065516 43 38 1.0 4.0 0.00 0.41 0.00 96 1016.0
20200329064544 43 306 2.0 8.0 0.00 0.41 0.00 96 1016.0
20200329064017 43 34 2.0 8.0 0.00 0.41 0.00 96 1015.8
20200329063555 43 334 1.0 9.0 0.00 0.41 0.00 96 1015.8
20200329063100 43 360 3.0 9.0 0.00 0.41 0.00 96 1015.8
20200329062509 43 292 1.0 4.0 0.00 0.41 0.00 96 1016.0
20200329062051 43 351 1.0 3.0 0.00 0.41 0.00 96 1016.1
20200329061544 43 350 0.0 3.0 0.00 0.41 0.00 96 1016.2
20200329061047 43 350 1.0 3.0 0.00 0.41 0.00 96 1016.2
20200329060558 43 350 0.0 3.0 0.00 0.41 0.00 96 1016.4
20200329060015 43 330 0.0 4.0 0.00 0.41 0.00 96 1016.4
20200329055549 43 350 0.0 4.0 0.00 0.41 0.00 96 1016.6
20200329055022 43 300 2.0 5.0 0.00 0.41 0.00 96 1016.5
20200329054500 43 330 1.0 5.0 0.00 0.41 0.00 96 1016.6
20200329054055 43 351 1.0 4.0 0.00 0.41 0.00 96 1016.4
20200329053517 43 327 1.0 6.0 0.00 0.41 0.00 96 1016.4
20200329053111 43 355 2.0 6.0 0.00 0.41 0.00 96 1016.3
20200329052536 43 304 2.0 8.0 0.00 0.41 0.00 96 1016.2
20200329052014 43 355 1.0 8.0 0.00 0.41 0.00 96 1016.0
20200329051603 43 341 3.0 6.0 0.00 0.41 0.41 96 1016.1
20200329051034 43 355 3.0 6.0 0.00 0.41 0.41 96 1016.1
20200329050506 43 322 1.0 5.0 0.00 0.41 0.41 96 1016.3
20200329050215 43 338 0.0 5.0 0.00 0.41 0.41 96 1016.5
20200329045511 43 5 2.0 5.0 0.00 0.41 0.41 96 1016.7
20200329045053 43 5 0.0 4.0 0.00 0.41 0.41 96 1016.7
20200329044554 43 12 2.0 4.0 0.00 0.41 0.41 96 1016.6
20200329044007 43 312 1.0 5.0 0.00 0.41 0.41 96 1016.7
20200329043547 43 313 1.0 5.0 0.00 0.41 0.41 96 1016.7
20200329043047 43 325 1.0 4.0 0.00 0.41 0.41 96 1016.5
20200329042504 43 13 1.0 5.0 0.00 0.41 0.41 96 1016.4
20200329042042 43 312 1.0 5.0 0.00 0.41 0.41 96 1016.4
20200329041622 43 355 1.0 4.0 0.00 0.41 0.41 96 1016.4
20200329040537 42 342 1.0 6.0 0.00 0.41 0.41 96 1016.5
20200329035538 42 360 2.0 5.0 0.00 0.41 0.41 95 1016.1
20200329035016 42 360 2.0 5.0 0.00 0.41 0.41 95 1016.2
20200329034651 42 317 1.0 4.0 0.00 0.41 0.41 95 1016.3
20200329034035 42 28 1.0 9.0 0.00 0.41 0.41 95 1016.4
20200329033510 42 15 3.0 9.0 0.00 0.41 0.41 95 1016.3
20200329033223 42 5 1.0 5.0 0.00 0.41 0.41 95 1016.2
20200329032536 42 14 2.0 8.0 0.00 0.41 0.41 95 1016.2
20200329032016 42 348 3.0 10.0 0.00 0.41 0.41 95 1016.1
20200329031556 42 22 3.0 10.0 0.00 0.41 0.41 95 1016.2
20200329031024 42 46 1.0 5.0 0.00 0.41 0.41 95 1016.4
20200329030049 42 323 0.0 8.0 0.00 0.41 0.41 95 1016.4
20200329025557 42 355 2.0 8.0 0.00 0.41 0.41 95 1016.3
20200329025040 42 342 1.0 6.0 0.00 0.41 0.41 95 1016.3
20200329024513 42 13 3.0 7.0 0.00 0.41 0.41 95 1016.4
20200329024052 42 351 0.0 5.0 0.00 0.41 0.41 95 1016.4
20200329023523 42 45 1.0 5.0 0.00 0.41 0.41 95 1016.4
20200329023008 42 162 2.0 9.0 0.00 0.41 0.41 95 1016.5
20200329022609 42 19 2.0 9.0 0.00 0.41 0.41 95 1016.6
20200329022018 42 9 2.0 9.0 0.00 0.41 0.41 95 1016.8
20200329021910 42 13 5.0 10.0 0.00 0.41 0.41 95 1016.8
20200329021043 42 343 4.0 8.0 0.00 0.41 0.41 95 1016.8
20200329020513 42 24 1.0 6.0 0.00 0.41 0.41 95 1016.9
20200329020120 42 323 1.0 5.0 0.00 0.41 0.41 95 1017.0
20200329015515 42 360 2.0 8.0 0.00 0.41 0.41 95 1016.8
20200329015119 42 329 1.0 4.0 0.00 0.41 0.41 95 1016.9
20200329014554 42 316 0.0 6.0 0.00 0.41 0.41 95 1016.9